• In Hungary
  • List of Countries
  • For 7 days
  • Water Temperature
  • Satellite Maps
  • Weather Map
  • News
  • Weather Widgets
  • user-avatar
    Login

    Hourly Weather Ciudad Bolívar

    Today, 25 February, Sunday

    Time Temperature Precipitation Wind Pressure Humidity
    00:00 +27°C° 0 mm 5 mps 753 mmHg 70%
    01:00 +27°C° 0 mm 5 mps 753 mmHg 73%
    02:00 +26°C° 0 mm 5 mps 753 mmHg 75%
    03:00 +26°C° 0 mm 4 mps 753 mmHg 77%
    04:00 +26°C° 0 mm 4 mps 753 mmHg 78%
    05:00 +25°C° 0 mm 4 mps 753 mmHg 80%
    06:00 +26°C° 0 mm 4 mps 753 mmHg 78%
    07:00 +26°C° 0 mm 4 mps 754 mmHg 75%
    08:00 +27°C° 0 mm 4 mps 754 mmHg 73%
    09:00 +28°C° 0 mm 3 mps 754 mmHg 67%
    10:00 +29°C° 0 mm 3 mps 755 mmHg 60%
    11:00 +31°C° 0 mm 3 mps 755 mmHg 53%
    12:00 +33°C° 0 mm 3 mps 754 mmHg 48%
    13:00 +35°C° 0 mm 3 mps 753 mmHg 43%
    14:00 +36°C° 0 mm 3 mps 752 mmHg 38%
    15:00 +36°C° 0 mm 3 mps 751 mmHg 38%
    16:00 +36°C° 0 mm 3 mps 751 mmHg 37%
    17:00 +36°C° 0 mm 4 mps 750 mmHg 37%
    18:00 +35°C° 0 mm 4 mps 751 mmHg 43%
    19:00 +33°C° 0 mm 5 mps 751 mmHg 49%
    20:00 +32°C° 0 mm 6 mps 752 mmHg 55%
    21:00 +30°C° 0 mm 6 mps 752 mmHg 58%
    22:00 +29°C° 0 mm 5 mps 753 mmHg 61%
    23:00 +29°C° 0 mm 5 mps 754 mmHg 64%

    Tomorrow, 26 February, Monday

    Time Temperature Precipitation Wind Pressure Humidity
    00:00 +28°C° 0 mm 5 mps 754 mmHg 66%
    01:00 +27°C° 0 mm 5 mps 753 mmHg 68%
    02:00 +27°C° 0 mm 4 mps 753 mmHg 71%
    03:00 +26°C° 0 mm 4 mps 753 mmHg 74%
    04:00 +26°C° 0 mm 3 mps 753 mmHg 77%
    05:00 +25°C° 0 mm 3 mps 753 mmHg 80%
    06:00 +26°C° 0 mm 3 mps 754 mmHg 79%
    07:00 +26°C° 0 mm 3 mps 754 mmHg 78%
    08:00 +26°C° 0 mm 3 mps 755 mmHg 77%
    09:00 +27°C° 0.1 mm 3 mps 755 mmHg 71%
    10:00 +29°C° 0.1 mm 3 mps 755 mmHg 65%
    11:00 +30°C° 0.1 mm 3 mps 755 mmHg 60%
    12:00 +31°C° 0 mm 3 mps 754 mmHg 54%
    13:00 +33°C° 0 mm 3 mps 753 mmHg 49%
    14:00 +35°C° 0 mm 3 mps 752 mmHg 43%
    15:00 +35°C° 0 mm 3 mps 751 mmHg 43%
    16:00 +35°C° 0 mm 3 mps 751 mmHg 42%
    17:00 +35°C° 0 mm 4 mps 750 mmHg 41%
    18:00 +34°C° 0 mm 4 mps 751 mmHg 47%
    19:00 +32°C° 0 mm 5 mps 751 mmHg 54%
    20:00 +30°C° 0 mm 6 mps 752 mmHg 60%
    21:00 +29°C° 0 mm 6 mps 752 mmHg 64%
    22:00 +28°C° 0 mm 6 mps 753 mmHg 68%
    23:00 +27°C° 0 mm 5 mps 754 mmHg 72%

    Day after tomorrow, 27 February, Tuesday

    Time Temperature Precipitation Wind Pressure Humidity
    00:00 +27°C° 0 mm 5 mps 753 mmHg 74%
    01:00 +26°C° 0 mm 5 mps 753 mmHg 76%
    02:00 +26°C° 0 mm 4 mps 753 mmHg 77%
    03:00 +25°C° 0 mm 4 mps 753 mmHg 78%
    04:00 +25°C° 0 mm 3 mps 753 mmHg 79%
    05:00 +25°C° 0 mm 3 mps 753 mmHg 81%
    06:00 +25°C° 0 mm 3 mps 753 mmHg 79%
    07:00 +26°C° 0 mm 3 mps 754 mmHg 77%
    08:00 +26°C° 0 mm 3 mps 754 mmHg 75%
    09:00 +28°C° 0 mm 3 mps 754 mmHg 65%
    10:00 +30°C° 0 mm 3 mps 754 mmHg 55%
    11:00 +33°C° 0 mm 4 mps 754 mmHg 44%
    12:00 +34°C° 0 mm 3 mps 753 mmHg 41%
    13:00 +35°C° 0 mm 3 mps 752 mmHg 38%
    14:00 +36°C° 0 mm 3 mps 751 mmHg 34%
    15:00 +36°C° 0 mm 3 mps 750 mmHg 35%
    16:00 +36°C° 0 mm 3 mps 750 mmHg 35%
    17:00 +36°C° 0 mm 4 mps 749 mmHg 35%
    18:00 +35°C° 0 mm 4 mps 750 mmHg 38%
    19:00 +34°C° 0 mm 4 mps 750 mmHg 42%
    20:00 +33°C° 0 mm 4 mps 751 mmHg 45%
    21:00 +32°C° 0 mm 5 mps 751 mmHg 49%
    22:00 +30°C° 0 mm 5 mps 752 mmHg 53%
    23:00 +29°C° 0 mm 5 mps 752 mmHg 58%

    28 February, Wednesday

    Time Temperature Precipitation Wind Pressure Humidity
    00:00 +28°C° 0 mm 5 mps 752 mmHg 62%
    01:00 +27°C° 0 mm 5 mps 752 mmHg 67%
    02:00 +26°C° 0 mm 5 mps 751 mmHg 72%
    03:00 +26°C° 0 mm 4 mps 752 mmHg 75%
    04:00 +26°C° 0 mm 4 mps 752 mmHg 77%
    05:00 +25°C° 0 mm 4 mps 752 mmHg 79%
    06:00 +26°C° 0 mm 4 mps 752 mmHg 78%
    07:00 +26°C° 0 mm 4 mps 753 mmHg 76%
    08:00 +26°C° 0 mm 3 mps 754 mmHg 74%
    09:00 +28°C° 0 mm 3 mps 754 mmHg 64%
    10:00 +30°C° 0 mm 3 mps 754 mmHg 54%
    11:00 +34°C° 0 mm 3 mps 753 mmHg 44%
    12:00 +35°C° 0 mm 3 mps 752 mmHg 39%
    13:00 +36°C° 0 mm 3 mps 751 mmHg 34%
    14:00 +37°C° 0 mm 3 mps 750 mmHg 29%
    15:00 +37°C° 0 mm 3 mps 750 mmHg 29%
    16:00 +37°C° 0 mm 4 mps 749 mmHg 28%
    17:00 +37°C° 0 mm 4 mps 749 mmHg 28%
    18:00 +36°C° 0 mm 4 mps 749 mmHg 33%
    19:00 +35°C° 0 mm 4 mps 750 mmHg 38%
    20:00 +33°C° 0 mm 5 mps 751 mmHg 43%
    21:00 +32°C° 0 mm 5 mps 751 mmHg 49%
    22:00 +30°C° 0 mm 5 mps 752 mmHg 55%
    23:00 +29°C° 0 mm 6 mps 752 mmHg 61%

    1 March, Thursday

    Time Temperature Precipitation Wind Pressure Humidity
    00:00 +28°C° 0 mm 6 mps 752 mmHg 65%
    01:00 +27°C° 0 mm 5 mps 752 mmHg 69%
    02:00 +27°C° 0 mm 5 mps 752 mmHg 73%
    03:00 +26°C° 0 mm 5 mps 752 mmHg 75%
    04:00 +26°C° 0 mm 5 mps 752 mmHg 76%
    05:00 +26°C° 0 mm 4 mps 752 mmHg 77%
    06:00 +26°C° 0 mm 4 mps 753 mmHg 76%
    07:00 +26°C° 0 mm 4 mps 753 mmHg 75%
    08:00 +27°C° 0 mm 4 mps 754 mmHg 74%
    09:00 +28°C° 0 mm 4 mps 754 mmHg 69%
    10:00 +29°C° 0 mm 4 mps 754 mmHg 63%
    11:00 +30°C° 0 mm 3 mps 754 mmHg 58%
    12:00 +31°C° 0 mm 3 mps 753 mmHg 54%
    13:00 +33°C° 0 mm 3 mps 753 mmHg 50%
    14:00 +34°C° 0 mm 3 mps 752 mmHg 46%
    15:00 +34°C° 0 mm 3 mps 751 mmHg 44%
    16:00 +35°C° 0 mm 3 mps 751 mmHg 42%
    17:00 +35°C° 0 mm 3 mps 750 mmHg 40%
    18:00 +34°C° 0 mm 3 mps 751 mmHg 44%
    19:00 +33°C° 0 mm 3 mps 751 mmHg 48%
    20:00 +32°C° 0 mm 4 mps 752 mmHg 53%
    21:00 +30°C° 0 mm 4 mps 752 mmHg 58%
    22:00 +29°C° 0 mm 5 mps 753 mmHg 62%
    23:00 +28°C° 0 mm 5 mps 753 mmHg 67%

    2 March, Friday

    Time Temperature Precipitation Wind Pressure Humidity
    00:00 +28°C° 0 mm 5 mps 753 mmHg 70%
    01:00 +27°C° 0 mm 5 mps 753 mmHg 74%
    02:00 +26°C° 0 mm 4 mps 752 mmHg 77%
    03:00 +26°C° 0 mm 4 mps 752 mmHg 79%
    04:00 +26°C° 0 mm 4 mps 752 mmHg 80%
    05:00 +25°C° 0 mm 3 mps 752 mmHg 82%
    06:00 +26°C° 0 mm 3 mps 753 mmHg 81%
    07:00 +26°C° 0 mm 4 mps 754 mmHg 79%
    08:00 +26°C° 0 mm 4 mps 754 mmHg 78%
    09:00 +28°C° 0 mm 4 mps 754 mmHg 72%
    10:00 +29°C° 0 mm 3 mps 754 mmHg 66%
    11:00 +30°C° 0 mm 3 mps 754 mmHg 59%
    12:00 +33°C° 0 mm 3 mps 753 mmHg 54%
    13:00 +34°C° 0 mm 3 mps 752 mmHg 49%
    14:00 +35°C° 0 mm 3 mps 751 mmHg 44%
    15:00 +35°C° 0 mm 3 mps 751 mmHg 44%
    16:00 +35°C° 0 mm 3 mps 750 mmHg 43%
    17:00 +35°C° 0 mm 3 mps 749 mmHg 42%
    18:00 +34°C° 0 mm 4 mps 750 mmHg 46%
    19:00 +33°C° 0 mm 4 mps 750 mmHg 50%
    20:00 +32°C° 0 mm 4 mps 751 mmHg 54%
    21:00 +30°C° 0 mm 4 mps 751 mmHg 60%
    22:00 +29°C° 0 mm 5 mps 751 mmHg 66%
    23:00 +28°C° 0 mm 5 mps 752 mmHg 71%
    Show more